Temp
62 61 63 64 64 65 65 65 65 65 65 65 65 64 65 65 67 65 63 68 67 71 68 63 65 64 64 61 60 57 51 47 50 49 54 55 55 54 54 53 53 54 52 54 54
62 61 61 63 64 64 64 65 65 64 64 64 64 64 65 65 65 63 70 73 72 71 64 64 62 63 60 58 57 54 49 52 55 53 54 55 56 55 53 51 52 51 52 51 52
61 61 61 62 63 64 64 64 64 64 64 64 64 64 64 62 62 65 72 72 71 69 65 63 62 61 57 56 55 53 52 54 56 57 56 56 54 53 52 50 54 53 50 49 50
61 61 61 62 62 63 64 63 63 64 64 64 63 63 63 62 54 63 70 70 70 65 64 63 62 57 54 53 54 52 53 54 57 56 54 54 52 51 50 58 54 54 53 50 49
60 60 60 61 61 62 63 63 63 63 63 63 63 63 62 57 62 63 68 68 65 63 61 60 58 55 52 52 53 51 52 54 55 54 54 52 53 53 50 53 52 50 49 49 50
59 59 59 60 61 62 62 63 63 63 63 63 63 63 59 54 62 63 62 63 62 62 58 60 57 56 54 51 51 50 51 53 52 53 53 52 50 50 52 47 48 47 48 48 49
59 58 59 59 60 61 62 62 62 62 62 63 64 64 58 62 63 62 64 58 58 59 58 56 58 56 54 50 51 50 49 51 50 51 51 51 48 47 52 47 47 45 45 46 48
59 58 58 59 60 60 61 61 62 62 62 63 64 59 58 61 61 63 60 59 60 59 58 56 56 56 52 52 50 46 46 45 50 50 50 51 46 53 48 46 47 44 44 45 46
59 59 59 59 59 60 60 61 61 62 64 63 56 57 57 64 59 59 58 60 57 57 57 61 55 50 50 47 45 44 43 41 46 50 48 49 47 51 47 44 46 44 44 45 46
59 59 59 59 59 60 60 61 61 61 62 62 64 55 57 56 58 59 57 59 56 55 55 54 49 46 44 45 41 42 40 41 41 47 45 44 46 54 52 44 48 47 44 44 44
59 59 59 59 60 60 56 58 59 57 56 57 53 54 54 55 57 55 56 57 55 53 49 47 46 44 48 46 45 43 40 41 43 46 44 44 45 51 55 45 46 44 42 43 44
60 59 59 60 60 60 51 52 47 48 49 53 52 53 54 54 53 54 57 54 51 47 46 44 44 48 48 45 44 41 39 39 42 42 42 41 42 49 52 53 55 49 44 44 44
60 60 60 60 59 53 47 47 47 45 45 51 53 52 52 56 52 52 56 50 47 43 43 42 45 46 47 41 41 39 38 38 41 40 39 37 37 39 46 47 48 47 48 46 45
59 59 60 59 53 47 46 46 47 45 38 46 49 52 52 52 49 51 51 50 44 45 42 44 45 46 41 42 43 38 41 39 38 36 32 39 35 38 45 47 47 46 43 46 44
59 59 60 58 47 46 46 46 45 48 26 47 48 54 51 49 46 46 49 48 44 43 44 45 41 40 40 43 44 41 40 39 37 34 30 32 28 38 36 41 49 50 45 44 44
58 58 58 52 46 46 45 43 48 40 27 43 48 45 45 45 46 46 46 48 45 43 40 42 42 44 44 40 40 41 38 36 31 30 22 35 34 35 36 42 47 47 48 46 41
58 57 55 53 47 45 45 46 37 29 42 43 44 43 41 43 43 45 44 41 41 38 36 38 39 40 42 40 39 39 37 29 26 22 28 27 26 42 42 43 48 50 47 44 41
57 57 55 55 48 47 46 43 28 36 40 42 42 39 42 43 42 41 39 38 42 40 36 38 41 39 41 44 41 36 38 30 22 21 36 22 26 41 42 49 43 43 42 40 40
57 53 51 51 49 49 46 32 41 39 43 43 40 35 36 41 42 38 36 36 43 46 45 36 37 37 38 39 41 34 32 36 26 10 19 35 37 40 41 41 40 40 38 40 40
53 50 50 52 51 50 38 43 41 46 44 43 43 44 37 38 37 38 36 39 43 45 48 46 39 37 36 37 35 36 38 30 29 22 15 31 38 43 40 44 44 41 40 42 40
52 47 50 52 55 44 34 36 40 47 48 45 44 41 40 39 39 33 40 43 44 43 46 45 44 36 35 33 33 32 32 32 33 28 23 22 39 42 45 45 46 46 42 42 41
50 42 48 55 41 42 38 37 44 42 43 47 43 43 42 40 36 34 36 46 47 44 40 43 40 36 31 30 33 33 37 38 32 28 23 24 37 44 45 45 44 44 42 42 40
47 45 48 51 36 38 36 37 41 40 43 44 43 41 43 40 38 37 39 43 45 45 42 43 37 28 35 30 31 32 33 37 34 29 35 25 36 48 45 44 42 41 39 40 39
46 38 41 43 45 42 41 40 39 42 44 44 42 43 38 36 41 44 37 42 42 46 47 49 38 37 38 42 35 29 31 35 37 34 35 35 41 49 52 50 47 42 38 41 39
47 40 41 34 38 41 44 40 41 39 41 43 43 45 42 41 43 42 43 39 40 41 41 43 38 41 43 45 37 35 35 36 32 36 34 40 39 45 51 51 52 53 53 44 36
47 40 42 40 41 39 40 38 38 42 42 40 42 46 45 41 44 41 45 40 39 32 37 37 36 37 38 42 36 35 37 41 39 39 36 38 38 52 55 55 52 52 51 50 45
52 48 43 40 38 36 37 38 40 43 45 48 47 44 42 44 49 50 51 44 44 41 39 34 34 32 29 37 30 25 35 41 43 45 42 35 42 49 48 48 48 50 50 48 46
MSLP
1020.24 1019.91 1019.55 1019.18 1018.83 1018.42 1018.02 1017.60 1017.16 1016.91 1016.75 1016.53 1016.28 1015.95 1015.65 1015.30 1015.19 1015.23 1015.06 1014.93 1014.99 1015.03 1015.20 1015.29 1015.22 1015.30 1015.58 1016.38 1016.74 1017.18 1018.01 1018.53 1018.19 1018.29 1017.62 1017.92 1018.45 1019.10 1019.51 1020.00 1020.37 1020.32 1020.57 1020.75 1021.03
1020.54 1020.18 1019.82 1019.42 1019.08 1018.67 1018.24 1017.88 1017.44 1016.93 1016.65 1016.50 1016.18 1016.08 1015.81 1015.38 1015.10 1015.06 1014.82 1014.79 1014.79 1014.73 1015.02 1015.12 1015.31 1015.40 1016.04 1016.63 1016.99 1017.25 1017.93 1017.58 1017.30 1017.40 1017.51 1017.90 1018.38 1018.89 1019.71 1019.99 1020.15 1020.25 1020.50 1021.03 1021.41
1020.83 1020.44 1020.05 1019.53 1019.13 1018.80 1018.38 1017.96 1017.57 1017.13 1016.60 1016.30 1016.11 1015.85 1015.68 1015.54 1015.38 1014.74 1014.71 1014.76 1014.73 1014.72 1014.73 1014.98 1015.16 1015.39 1016.14 1016.62 1017.06 1017.20 1017.34 1017.15 1016.81 1016.87 1017.18 1017.66 1018.27 1018.80 1019.35 1019.64 1018.84 1018.95 1019.73 1020.89 1021.39
1020.98 1020.62 1020.21 1019.73 1019.12 1018.69 1018.36 1017.94 1017.51 1017.10 1016.63 1016.24 1015.92 1015.82 1015.65 1015.57 1015.56 1014.70 1014.73 1014.65 1014.60 1014.64 1014.67 1014.95 1015.21 1015.73 1016.44 1016.79 1016.99 1017.17 1017.03 1017.08 1016.84 1016.71 1017.12 1017.51 1017.90 1018.44 1018.79 1017.71 1018.06 1018.51 1019.24 1020.33 1020.99
1021.19 1020.81 1020.40 1019.92 1019.27 1018.58 1018.12 1017.73 1017.39 1016.96 1016.49 1016.16 1015.84 1015.59 1015.58 1015.80 1015.26 1014.83 1014.66 1014.60 1014.56 1014.73 1015.18 1015.28 1015.70 1016.07 1016.57 1016.82 1017.02 1017.11 1017.12 1017.10 1016.93 1017.03 1017.21 1017.50 1017.67 1018.09 1017.45 1017.58 1018.02 1018.64 1019.29 1019.80 1020.50
1021.20 1020.90 1020.44 1019.98 1019.36 1018.67 1017.92 1017.34 1016.98 1016.66 1016.25 1015.89 1015.73 1015.57 1015.68 1015.84 1014.83 1014.70 1014.73 1014.84 1014.96 1014.96 1015.53 1015.62 1015.93 1016.15 1016.70 1017.08 1017.22 1017.31 1017.36 1017.12 1017.15 1017.20 1017.40 1017.70 1017.84 1018.18 1016.82 1017.39 1018.06 1018.63 1019.10 1019.54 1019.94
1021.24 1020.88 1020.45 1019.96 1019.38 1018.69 1017.94 1017.09 1016.56 1016.21 1015.87 1015.64 1015.51 1015.51 1015.54 1015.12 1014.61 1014.75 1014.68 1015.17 1015.31 1015.27 1015.80 1016.09 1016.07 1016.47 1016.94 1017.42 1017.49 1017.52 1017.64 1017.34 1017.18 1017.24 1017.45 1017.74 1018.14 1017.52 1016.85 1017.59 1017.95 1018.40 1018.87 1019.34 1019.61
1021.07 1020.85 1020.50 1019.94 1019.31 1018.60 1017.74 1016.89 1016.27 1015.86 1015.43 1015.37 1015.47 1015.52 1015.14 1014.62 1014.62 1014.76 1015.16 1015.57 1015.63 1015.58 1015.96 1016.30 1016.27 1016.70 1017.22 1017.63 1017.82 1017.91 1017.93 1017.87 1017.23 1017.37 1017.23 1017.70 1016.65 1016.21 1016.61 1017.45 1017.69 1018.10 1018.57 1018.85 1019.09
1020.94 1020.67 1020.32 1019.82 1019.19 1018.49 1017.56 1016.51 1015.89 1015.55 1015.38 1015.49 1015.66 1015.40 1014.91 1014.60 1014.86 1014.93 1015.11 1015.51 1015.79 1016.15 1016.47 1016.46 1016.76 1017.62 1017.70 1017.95 1018.41 1018.45 1018.29 1018.13 1017.56 1017.20 1017.50 1017.67 1016.57 1015.71 1016.21 1017.10 1017.03 1017.50 1017.81 1018.26 1018.78
1020.93 1020.55 1020.12 1019.70 1019.18 1018.33 1017.39 1015.94 1015.38 1015.46 1015.45 1015.54 1015.64 1015.91 1014.92 1014.60 1014.71 1014.82 1015.06 1015.52 1016.02 1016.34 1016.60 1016.89 1017.56 1017.99 1018.44 1018.41 1018.37 1018.37 1018.49 1018.25 1017.95 1017.44 1017.68 1017.58 1016.41 1015.05 1015.55 1016.15 1015.51 1016.08 1016.87 1017.56 1017.90
1020.74 1020.43 1020.00 1019.52 1018.98 1018.33 1017.65 1016.11 1016.23 1016.29 1015.99 1015.63 1015.57 1015.36 1014.90 1014.99 1014.97 1015.11 1015.17 1015.38 1015.84 1016.42 1016.98 1017.41 1018.00 1017.62 1017.31 1017.53 1017.45 1017.80 1018.26 1018.35 1017.64 1017.52 1017.86 1016.91 1016.27 1015.29 1014.25 1014.81 1014.50 1014.60 1015.52 1016.24 1016.46
1020.51 1020.30 1019.94 1019.41 1018.91 1018.48 1018.14 1018.37 1018.70 1019.22 1017.59 1015.68 1015.45 1015.31 1014.84 1014.86 1015.13 1015.20 1015.36 1015.83 1016.18 1016.67 1017.15 1017.94 1017.36 1016.14 1016.87 1017.32 1017.73 1018.16 1018.59 1018.36 1017.98 1017.91 1018.28 1017.19 1015.79 1014.44 1013.81 1012.93 1012.81 1013.17 1014.24 1014.88 1015.97
1020.08 1020.00 1019.78 1019.32 1018.80 1018.67 1018.96 1019.11 1019.41 1019.38 1018.75 1016.08 1015.17 1014.97 1014.87 1015.05 1015.06 1014.93 1015.35 1015.68 1016.13 1016.94 1017.25 1017.51 1016.40 1016.21 1016.72 1017.59 1018.12 1018.34 1018.58 1018.46 1018.52 1018.51 1018.44 1017.92 1014.96 1013.64 1012.27 1011.96 1011.53 1011.93 1012.42 1013.46 1014.18
1019.74 1019.62 1019.55 1019.07 1019.17 1019.31 1019.33 1019.35 1019.50 1019.67 1018.96 1016.26 1015.17 1014.55 1014.94 1015.10 1015.43 1015.32 1015.32 1015.51 1016.10 1016.22 1017.15 1017.13 1016.05 1016.35 1017.00 1017.48 1017.87 1018.53 1017.85 1018.49 1019.09 1019.72 1019.72 1018.78 1014.70 1013.80 1012.49 1011.60 1010.97 1010.87 1011.75 1012.22 1013.03
1019.20 1019.35 1019.33 1019.26 1019.74 1019.54 1019.50 1019.48 1019.61 1019.77 1018.31 1015.41 1014.90 1014.78 1014.68 1015.19 1015.70 1015.56 1015.64 1015.50 1015.71 1016.19 1016.71 1015.43 1015.95 1016.64 1016.96 1016.79 1017.29 1017.73 1018.05 1019.06 1019.60 1020.12 1020.27 1019.19 1018.33 1012.81 1012.67 1011.91 1010.05 1009.40 1010.34 1011.21 1012.01
1018.37 1018.82 1019.08 1019.56 1019.90 1019.72 1019.61 1019.22 1019.58 1019.88 1017.39 1015.05 1014.55 1014.84 1015.26 1015.23 1015.45 1015.75 1015.73 1015.66 1015.81 1015.96 1016.12 1015.83 1015.87 1016.15 1016.23 1016.94 1017.27 1017.90 1018.69 1019.66 1020.45 1020.67 1019.81 1017.12 1016.90 1012.54 1012.03 1010.54 1009.78 1009.22 1009.68 1010.52 1011.62
1017.83 1018.18 1018.60 1019.01 1019.32 1019.46 1019.82 1019.63 1019.89 1018.31 1016.20 1014.74 1014.39 1014.76 1014.90 1015.25 1015.51 1015.73 1015.88 1015.89 1015.69 1016.14 1015.94 1015.66 1015.62 1015.67 1015.97 1017.09 1017.87 1018.18 1019.23 1020.56 1020.69 1020.82 1018.21 1016.70 1016.39 1010.93 1010.23 1009.13 1008.47 1008.81 1009.45 1010.31 1011.25
1017.25 1017.96 1018.02 1018.19 1018.90 1019.27 1019.53 1019.97 1018.13 1015.32 1014.61 1014.09 1014.30 1014.78 1014.83 1014.72 1015.00 1015.42 1015.75 1015.79 1015.19 1015.13 1015.42 1015.49 1015.00 1015.24 1015.36 1015.71 1016.54 1017.90 1018.49 1019.79 1019.84 1020.29 1017.48 1016.29 1013.08 1008.39 1008.06 1007.61 1008.12 1008.71 1009.32 1009.94 1010.63
1016.69 1017.38 1017.61 1017.56 1018.33 1019.13 1019.24 1018.04 1013.62 1013.47 1013.24 1013.46 1014.10 1014.48 1014.62 1014.27 1014.80 1015.29 1015.19 1014.48 1013.38 1013.47 1013.78 1014.13 1013.96 1014.58 1015.17 1015.52 1016.20 1017.79 1018.17 1017.65 1018.86 1020.35 1018.47 1013.29 1009.29 1007.77 1007.20 1007.30 1008.01 1008.46 1009.34 1009.69 1010.02
1015.80 1016.28 1015.58 1016.28 1017.62 1018.35 1018.82 1014.63 1012.56 1011.42 1011.60 1011.87 1012.35 1012.23 1012.73 1013.56 1014.55 1014.61 1013.91 1012.21 1012.24 1011.77 1011.18 1011.99 1013.57 1014.23 1015.37 1015.65 1016.22 1016.21 1016.71 1017.81 1018.46 1018.77 1017.11 1011.38 1007.77 1005.78 1006.36 1006.35 1007.06 1008.09 1008.39 1008.87 1009.47
1014.52 1014.96 1013.91 1014.91 1016.56 1017.68 1016.30 1013.57 1011.81 1010.82 1010.66 1011.14 1010.93 1011.36 1011.67 1012.19 1012.73 1013.12 1011.75 1010.80 1010.62 1010.94 1011.29 1011.56 1012.53 1014.13 1015.07 1014.77 1014.49 1016.44 1016.38 1016.75 1016.76 1016.37 1015.17 1012.44 1003.94 1003.06 1003.42 1004.29 1005.56 1006.17 1006.67 1007.81 1008.67
1013.15 1014.62 1014.56 1013.99 1015.33 1015.15 1012.93 1011.81 1010.89 1010.44 1010.34 1010.15 1010.05 1009.98 1010.40 1011.23 1011.67 1011.98 1011.40 1009.88 1009.21 1009.96 1011.37 1011.26 1011.47 1012.84 1012.54 1013.05 1013.35 1013.67 1013.70 1014.38 1014.87 1014.24 1013.52 1011.77 1003.53 1001.14 1002.31 1003.37 1004.28 1005.04 1006.25 1006.93 1007.92
1012.23 1013.53 1014.52 1013.72 1012.94 1012.63 1012.12 1011.56 1010.94 1010.38 1010.25 1010.16 1009.99 1009.58 1009.49 1010.17 1010.90 1010.19 1009.55 1008.79 1009.35 1009.63 1009.43 1010.19 1010.95 1012.02 1011.93 1013.27 1013.33 1013.05 1012.95 1012.56 1012.07 1011.48 1009.30 1010.47 1002.16 1001.62 1001.84 1002.06 1003.25 1004.76 1006.02 1006.39 1006.96
1010.64 1012.00 1013.89 1013.12 1011.88 1011.17 1010.84 1010.98 1010.60 1009.48 1009.54 1009.40 1009.23 1009.20 1009.67 1009.60 1009.29 1008.61 1008.56 1008.59 1008.69 1009.01 1008.90 1008.87 1009.33 1009.92 1009.23 1008.84 1010.03 1011.51 1011.25 1010.51 1010.14 1009.01 1007.56 1005.36 1001.83 1000.44 999.79 1002.01 1003.01 1003.86 1004.67 1004.97 1005.88
1009.42 1009.77 1009.50 1011.30 1011.50 1010.71 1010.18 1009.19 1009.14 1008.69 1008.57 1008.86 1008.49 1008.58 1008.46 1008.36 1008.61 1007.90 1008.30 1008.82 1009.31 1009.77 1010.10 1009.59 1009.65 1009.23 1008.62 1007.87 1008.51 1008.87 1009.24 1008.08 1007.95 1005.71 1005.88 1002.77 1004.29 999.06 998.94 1001.74 1001.16 1002.14 1002.40 1003.21 1004.49
1008.37 1008.68 1009.77 1009.67 1009.06 1009.81 1009.29 1007.89 1008.10 1007.39 1007.51 1007.32 1006.67 1007.18 1007.65 1007.82 1007.48 1006.73 1007.26 1008.14 1009.45 1010.36 1009.80 1009.93 1009.11 1009.30 1008.37 1008.02 1008.45 1008.66 1007.62 1005.27 1005.46 1002.87 1004.97 1004.52 1002.32 996.46 999.89 1000.52 1000.17 1000.24 1000.99 1001.83 1002.67
1007.58 1007.72 1007.81 1007.45 1007.39 1007.88 1007.58 1007.21 1006.54 1007.36 1006.46 1005.82 1005.54 1005.45 1006.20 1005.19 1005.37 1005.22 1006.74 1007.61 1007.87 1008.52 1009.24 1009.86 1009.64 1009.13 1007.45 1007.91 1008.81 1008.22 1003.17 1004.54 1002.56 1001.62 1002.92 1001.99 998.08 999.17 999.74 999.99 998.90 999.40 1000.07 1000.14 1000.92
Wind_Speed
19 20 21 21 20 19 19 18 18 16 11 12 12 9 8 7 3 1 1 3 2 5 1 2 2 2 4 3 3 3 5 1 4 5 3 3 3 1 1 4 3 6 3 2 11
18 19 20 21 20 19 18 17 17 17 14 12 10 10 10 8 1 1 1 2 3 1 1 2 2 2 4 2 3 5 4 6 5 5 2 4 4 6 3 2 5 4 3 4 13
18 18 18 20 20 19 18 16 15 15 16 13 10 8 8 6 2 4 1 4 4 2 4 2 3 2 4 2 3 2 4 3 3 4 3 3 3 6 5 6 11 11 8 11 11
18 18 20 20 20 20 18 16 15 14 16 15 10 8 8 2 4 3 2 3 4 4 3 3 5 4 3 2 1 1 1 2 3 2 3 4 6 4 9 7 1 7 13 14 15
17 17 18 20 20 20 20 17 15 14 14 15 10 5 1 2 7 1 1 3 3 2 4 3 4 3 2 3 1 2 2 2 4 5 4 3 7 6 10 9 1 6 12 17 14
15 16 17 18 19 21 21 20 15 13 15 13 8 4 3 4 2 2 1 2 3 3 2 4 4 3 5 2 2 2 3 6 3 4 3 4 3 1 2 5 5 9 13 14 16
17 17 17 18 19 20 22 21 18 14 15 10 4 2 3 12 4 4 5 2 2 2 4 1 5 1 5 3 0 1 4 5 3 1 3 5 8 11 4 3 6 9 10 12 14
16 18 18 18 19 21 22 23 20 16 9 2 2 0 7 2 3 4 3 4 4 5 5 3 3 6 2 3 5 1 4 3 2 3 2 4 12 7 5 7 10 10 11 13 17
15 17 18 17 18 20 23 26 20 7 1 2 1 3 8 4 2 3 0 5 4 4 5 3 5 4 3 4 5 6 3 4 7 6 1 6 11 6 5 7 11 11 13 14 12
14 15 17 18 20 20 25 24 9 1 1 0 1 2 1 3 3 4 2 5 4 4 4 5 6 3 3 4 6 6 4 5 7 4 4 5 17 20 8 10 18 14 13 14 16
13 14 14 16 18 20 14 7 7 5 5 6 3 4 2 1 0 1 2 5 4 3 5 2 3 10 13 9 3 4 5 7 5 5 4 11 16 20 20 10 15 14 12 16 21
12 14 15 16 17 20 2 4 3 3 9 5 5 6 4 2 3 4 4 6 5 8 6 4 12 9 6 5 5 4 4 8 7 2 6 9 18 18 20 20 19 16 12 16 13
9 12 14 15 15 4 3 4 1 3 2 10 6 5 3 6 7 5 10 4 5 7 8 9 4 6 7 4 6 5 7 5 9 6 4 8 11 8 6 7 9 9 12 13 18
9 6 12 14 2 3 1 1 1 2 3 9 5 3 3 3 5 2 3 4 2 10 11 8 3 7 4 6 8 4 7 2 3 3 5 4 17 3 7 12 8 9 10 14 15
10 7 5 3 4 1 1 1 1 2 6 7 3 1 3 5 2 1 1 1 6 7 8 10 8 5 5 9 9 7 4 4 1 3 3 4 6 4 3 8 17 9 10 11 13
12 10 6 1 1 3 1 1 2 6 11 5 4 3 3 2 2 1 1 2 1 5 2 6 1 7 7 3 2 6 5 4 4 2 2 9 11 6 7 11 9 6 6 7 8
13 12 8 5 3 3 1 2 3 8 4 6 5 4 2 6 4 6 6 6 8 5 6 0 5 3 4 5 3 3 6 6 6 3 11 5 3 15 7 12 13 11 7 6 7
13 11 6 3 5 5 3 4 10 9 10 3 4 2 8 9 6 7 5 5 8 1 4 6 12 10 6 9 9 7 10 9 10 5 16 2 11 11 17 13 6 7 7 6 7
15 4 4 6 8 3 2 7 13 11 11 11 3 4 6 5 6 6 10 8 10 18 12 8 10 2 3 3 4 6 7 3 5 2 3 7 14 7 8 10 6 10 7 11 9
7 5 7 14 11 4 1 20 10 10 8 5 17 14 13 10 9 10 10 7 7 16 5 6 6 3 3 3 1 5 6 4 2 3 7 13 25 19 11 15 12 12 14 12 7
6 5 4 17 9 4 10 13 6 8 8 10 15 8 10 11 10 9 11 5 9 6 9 6 6 3 4 12 14 5 4 3 2 5 7 7 22 5 8 11 12 14 10 10 9
4 6 4 14 10 7 14 9 4 4 3 9 5 11 13 10 9 8 12 11 10 10 13 8 5 9 15 1 0 3 12 13 8 9 6 2 32 1 2 9 9 8 9 7 7
5 4 2 8 9 11 3 4 4 3 7 9 10 7 5 9 6 10 10 4 11 11 13 10 5 2 8 2 4 7 8 9 2 1 23 8 29 5 10 9 9 8 8 10 10
4 6 3 6 7 16 17 10 9 6 10 5 4 7 4 5 7 11 7 7 7 7 7 13 7 12 22 17 7 6 9 18 22 19 14 30 33 38 33 20 12 8 10 13 12
5 2 8 11 18 16 17 9 20 11 6 9 7 21 14 14 16 22 10 1 4 7 3 8 13 16 24 26 6 5 7 22 24 30 21 29 21 41 33 20 24 19 21 11 11
6 5 4 4 14 23 20 17 24 20 12 13 21 19 20 25 25 24 20 4 6 3 5 1 13 10 27 26 9 11 20 28 25 34 15 20 34 45 28 20 22 27 23 23 17
6 3 4 7 12 16 22 29 26 24 13 24 22 17 19 29 29 30 19 10 11 10 12 8 7 9 24 22 3 2 37 30 34 33 20 28 40 30 28 26 28 27 25 24 20
Wind_Direction
8 6 3 3 2 1 357 352 347 348 350 344 338 327 319 333 293 264 231 184 201 330 9 295 67 60 69 74 73 135 71 216 236 167 246 160 159 24 358 128 232 206 185 292 133
5 3 1 358 358 358 358 351 343 338 340 341 335 324 319 328 88 316 220 312 287 261 97 114 78 106 61 65 19 85 111 216 192 201 259 193 186 175 169 191 245 261 213 114 141
1 360 356 354 354 354 353 351 343 333 329 335 328 321 319 313 11 226 159 321 323 167 123 114 112 88 84 89 359 178 171 214 233 222 196 184 225 159 161 234 221 210 164 160 167
356 353 351 349 350 348 348 345 340 333 322 327 327 325 327 267 219 185 326 355 29 125 88 62 39 66 90 104 299 140 216 204 280 229 168 217 130 219 197 229 51 222 168 167 179
352 350 347 343 343 343 341 341 337 329 318 324 315 324 25 353 257 28 334 348 86 73 56 85 57 124 115 144 146 163 232 243 288 285 257 141 238 237 245 237 220 140 162 180 183
349 346 344 340 338 337 335 331 330 327 316 321 302 286 110 242 146 20 169 31 49 82 67 44 145 170 105 104 140 170 278 273 309 269 254 234 286 340 236 138 164 170 187 187 185
342 342 340 338 335 332 328 324 322 324 314 311 272 261 125 235 143 75 102 90 28 85 114 108 134 114 137 135 221 127 318 315 237 223 249 176 281 232 227 178 199 203 193 191 197
337 337 335 332 332 329 324 319 317 313 305 282 212 183 241 124 162 109 119 64 50 42 91 100 93 105 74 125 31 83 62 25 232 172 248 154 272 266 177 179 226 214 203 200 206
329 331 331 328 328 326 321 313 313 306 13 110 205 142 266 137 163 122 340 145 96 62 58 87 61 86 47 88 9 358 252 240 301 206 227 175 273 229 171 214 241 219 213 208 208
320 325 328 327 325 324 322 303 285 311 33 199 8 35 249 223 138 130 81 123 107 108 68 50 53 77 44 98 236 228 240 247 241 220 211 226 259 278 244 223 247 226 212 209 213
315 320 325 323 319 324 338 353 12 344 32 195 207 247 263 28 45 81 144 106 107 84 176 9 110 213 210 201 174 168 198 234 250 239 226 247 254 262 275 244 257 240 208 211 219
311 319 320 319 317 322 328 86 157 157 310 267 240 278 227 193 280 209 121 155 155 195 126 56 229 202 133 150 153 166 206 258 283 237 193 272 263 265 259 261 259 249 223 222 213
292 312 318 311 316 5 357 139 161 181 189 293 220 217 208 151 221 232 155 149 159 174 189 169 232 108 132 146 163 203 191 228 236 335 253 302 265 237 285 255 266 223 224 213 209
263 281 319 318 24 330 288 154 235 285 48 266 241 263 88 135 269 34 217 146 199 208 160 227 223 151 161 209 150 225 208 206 287 17 257 22 292 238 244 281 257 233 207 223 207
243 252 306 24 289 256 177 261 246 63 295 271 208 116 130 164 109 313 312 72 194 186 136 239 163 164 185 215 162 222 125 142 134 215 7 239 269 215 8 274 267 258 218 220 207
213 217 143 89 61 295 330 133 75 51 246 285 160 185 138 169 179 123 135 55 121 140 252 255 352 169 198 80 145 135 95 68 63 101 264 223 200 167 184 211 258 258 228 222 202
196 195 163 144 221 138 61 56 59 195 293 235 214 173 178 191 208 179 172 188 178 132 226 247 212 175 163 100 27 101 69 327 318 346 245 136 233 257 234 229 219 226 219 217 220
184 174 190 184 132 137 106 57 224 183 192 112 136 121 194 160 224 184 170 225 237 125 122 181 267 178 186 195 177 174 167 169 238 233 287 69 245 269 219 238 215 255 258 246 222
153 172 175 181 141 122 160 203 215 175 186 166 105 170 234 236 194 154 209 207 207 176 194 178 267 117 204 149 144 182 193 174 96 138 317 239 262 283 227 251 237 238 234 250 222
180 185 188 158 149 120 147 239 215 185 141 140 198 181 203 193 173 185 179 194 217 194 183 221 276 187 137 128 62 172 162 88 359 243 251 268 273 270 218 233 227 240 222 241 234
193 201 156 142 136 175 216 230 246 205 156 167 215 225 219 186 197 204 219 228 199 185 187 156 176 214 128 205 172 144 200 198 166 162 193 269 268 207 207 199 206 231 211 212 218
143 252 159 151 171 198 225 195 220 243 175 236 189 218 205 184 205 226 218 223 161 152 163 210 169 223 220 317 109 198 196 177 195 226 244 192 270 54 321 189 203 221 211 215 219
188 166 190 201 203 207 248 282 251 186 196 202 228 198 177 196 228 191 219 186 153 163 167 175 223 270 263 348 356 215 195 214 249 213 229 186 258 160 234 225 204 222 231 235 228
166 155 191 218 245 211 208 226 235 205 232 231 242 171 161 228 246 253 220 200 198 202 354 167 168 206 236 247 132 193 200 214 214 234 229 231 257 275 258 267 255 247 230 229 220
200 204 175 180 228 228 212 200 227 222 208 195 245 231 213 234 240 242 257 266 78 12 340 164 241 239 252 260 219 203 229 225 222 228 221 253 245 257 270 267 269 268 268 257 219
251 171 173 246 211 225 217 216 231 233 180 216 218 236 232 240 240 263 239 192 212 237 198 192 249 267 253 258 248 243 253 255 253 252 237 257 262 256 281 287 286 275 275 275 254
226 195 178 197 202 202 217 228 230 236 241 237 229 222 231 232 228 241 259 191 206 213 234 196 230 241 253 259 216 253 243 260 264 268 262 254 252 273 264 265 259 266 269 268 264